Regional Weather Roundup
Issued by NWS

Home | Current Version | Previous Version | Graphics & Text | Print | Product List | Glossary On
Versions: 1 2 3 4 5 6 7 8 9 10 11 12 13 14 15 16 17 18 19 20 21 22 23 24 25 26 27 28 29 30 31 32 33 34 35 36 37 38 39 40 41 42 43 44 45 46 47 48 49 50
000
ASUS43 KLMK 170102
RWRKY
KENTUCKY REGIONAL WEATHER ROUNDUP
NATIONAL WEATHER SERVICE LOUISVILLE KY
800 PM EST TUE JAN 16 2018

NOTE "FAIR" INDICATES FEW OR NO CLOUDS BELOW 12,000 FEET
WITH NO SIGNIFICANT WEATHER AND/OR OBSTRUCTIONS TO VISIBILITY.

KYZ001>023-026-027-061>063-070>075-170200-
WESTERN AND SOUTH CENTRAL KENTUCKY

CITY           SKY/WX    TMP DP  RH WIND       PRES   REMARKS
PADUCAH        CLOUDY    11   0  61 N6        30.67R WCI   1
HENDERSON      FLURRIES   8   1  73 NW8       30.67S WCI  -4
OWENSBORO      FLURRIES   6   0  76 W5        30.66S WCI  -3
HOPKINSVILLE   MOCLDY     3  -6  65 N6        30.63R WCI  -8
BOWLING GREEN  FAIR       7  -2  66 NW5       30.63R WCI  -2
GLASGOW        NOT AVBL
$$

KYZ024-025-028>034-038-045-046-053-170200-
NORTH CENTRAL KENTUCKY

CITY           SKY/WX    TMP DP  RH WIND       PRES   REMARKS
LOUISVILLE/SDF CLOUDY    10   0  63 W13       30.60R WCI  -5
LOUISVILLE/LOU CLOUDY    10   0  63 W8        30.61R WCI  -2
FORT KNOX      FLURRIES   7  -2  66 W9        30.56S WCI  -7
$$

KYZ035>037-039>044-047>052-055>060-089>105-170200-
NORTHEAST KENTUCKY

CITY           SKY/WX    TMP DP  RH WIND       PRES   REMARKS
LEXINGTON      FAIR       5  -3  69 CALM      30.54R
COVINGTON      CLOUDY     8   2  76 W8        30.53R WCI  -4
FRANKFORT      CLOUDY     5  -2  72 CALM      30.55R
$$

KYZ054-064>069-076>088-106>120-170200-
SOUTHEAST KENTUCKY

CITY           SKY/WX    TMP DP  RH WIND       PRES   REMARKS
JACKSON        LGT SNOW  11   6  81 NW7       30.48R WCI   0
LONDON         CLOUDY    10   4  76 N6        30.51R WCI   0
SOMERSET       NOT AVBL
MIDDLESBORO    CLOUDY    16  10  77 N7        30.48R WCI   7
MONTICELLO     FAIR      -2  -7  79 VRB3      30.58R
$$





USA.gov is the U.S. government's official web portal to all federal, state and local government web resources and services.